Regional Weather Roundup
Issued by NWS

Home | Current Version | Previous Version | Text Only | Print | Product List | Glossary On
Versions: 1 2 3 4 5 6 7 8 9 10 11 12 13 14 15 16 17 18 19 20 21 22 23 24 25 26 27 28 29 30 31 32 33 34 35 36 37 38 39 40 41 42 43 44 45 46 47 48 49 50
000
ASUS43 KDTX 052201
RWRMI
MICHIGAN HOURLY REGIONAL WEATHER ROUNDUP
NATIONAL WEATHER SERVICE DETROIT/PONTIAC MI
600 PM EDT SUN JUL 05 2015

NOTE: "FAIR" INDICATES FEW OR NO CLOUDS BELOW 12,000 FEET WITH NO
SIGNIFICANT WEATHER AND/OR OBSTRUCTION TO VISIBILITY.

MIZ047>049-052>055-059>063-066>070-074>076-081>083-052300-
SOUTHEAST LOWER MICHIGAN

CITY           SKY/WX    TMP DP  RH WIND       PRES   REMARKS
ADRIAN         PTSUNNY   79  61  53 E6        30.10S
ALMA           SUNNY     82  60  46 S7        30.08S
ANN ARBOR      PTSUNNY   78  60  53 SE5       30.09S
BAD AXE        PTSUNNY   78  65  63 SE7       30.09S
CARO           SUNNY     82  62  51 SW7       30.08S
DETROIT CITY   PTSUNNY   78  57  48 SE8       30.09F
DETROIT        PTSUNNY   78  56  46 SE7       30.10S
FLINT          MOSUNNY   83  61  47 S6        30.09S
GROSSE ILE     PTSUNNY   75  63  64 S5        30.08F
HILLSDALE      PTSUNNY   81  57  44 CALM      30.10F
HOWELL         SUNNY     80  57  45 SE7       30.10S

CITY           SKY/WX    TMP DP  RH WIND       PRES   REMARKS
JACKSON        MOSUNNY   81  59  47 SW5       30.10S
LAMBERTVILLE   PTSUNNY   78  56  47 E5        30.10S
LANSING        SUNNY     81  60  48 CALM      30.09S
LAPEER         FAIR      82  55  39 SW5       30.09S
MASON          MOSUNNY   78  61  54 CALM      30.09S
MONROE         PTSUNNY   77  58  52 E6        30.09S
MT. CLEMENS    PTSUNNY   78  60  54 SE10      30.08S
PONTIAC        PTSUNNY   81  58  45 SW7       30.09S
PORT HOPE        N/A     70  66  87 E9        30.08F
PORT HURON     SUNNY     79  63  57 S3        30.09F
TRI CITIES     SUNNY     84  58  40 SW9       30.07F
MIDLAND        FAIR      82  57  42 SW9       30.06F
TROY           PTSUNNY   83  53  36 S7        30.11R
SAGINAW HB     SUNNY     81  59  47 S8        30.07S
$$
MIZ043>046-050>051-056>058-064>065-071>073-077>080-052300-
SOUTHWEST LOWER MICHIGAN

CITY           SKY/WX    TMP DP  RH WIND       PRES   REMARKS
BATTLE CREEK   SUNNY     82  61  48 SW9       30.09S
BENTON HARBOR  SUNNY     80  59  48 N5        30.06S
BIG RAPIDS     PTSUNNY   80  57  45 S5        30.06S
COLDWATER      MOSUNNY   79  60  50 S3        30.09S
FREMONT        FAIR      81  53  37 SW8       30.05F
HOLLAND        SUNNY     82  60  47 W7        30.07F
GRAND RAPIDS   PTSUNNY   82  61  48 S7        30.06F
IONIA          FAIR      82  59  45 SW6       30.07S
KALAMAZOO      MOSUNNY   82  60  47 VRB5      30.08S
LUDINGTON      SUNNY     78  62  56 SW10      30.05F
MARSHALL       SUNNY     81  61  50 S5        30.08F
MOUNT PLEASANT SUNNY     82  58  43 SW6       30.06F
MUSKEGON       MOSUNNY   80  58  46 SW7       30.06F
SOUTH HAVEN    SUNNY     79  59  49 NW5       30.06F
$$
MIZ016>042-052300-
NORTHERN LOWER MICHIGAN

CITY           SKY/WX    TMP DP  RH WIND       PRES   REMARKS
ALPENA         SUNNY     78  59  51 E9        30.06F
BEAVER ISLAND  SUNNY     78  61  55 SW8       30.02F HAZE
BELLAIRE       SUNNY     84  59  42 SW3       30.01F
CADILLAC       SUNNY     81  60  49 S8        30.06F
CHARLEVOIX     SUNNY     78  62  56 W9        30.05F
FRANKFORT      SUNNY     77  55  45 SW6       30.02F
GAYLORD        MOSUNNY   81  59  47 S10       30.06F
GRAYLING       MOSUNNY   81  60  48 S6        30.07F
HARBOR SPRINGS SUNNY     74  63  70 SW3       30.03F
HOUGHTON LAKE  MOSUNNY   80  60  50 S8        30.07F
MANISTEE       SUNNY    N/A N/A N/A S8        30.03F
OSCODA         SUNNY     77  60  54 SE7       30.08S
PELLSTON       SUNNY     82  63  52 CALM      30.03F
ROGERS CITY    SUNNY     79  62  55 SE13      30.05S
TRAVERSE CITY  PTSUNNY   85  61  44 VRB5      29.99F
$$
MIZ007>008-015-052300-
EASTERN UPPER MICHIGAN

CITY           SKY/WX    TMP DP  RH WIND       PRES   REMARKS
KINROSS        SUNNY     79  63  57 S9        30.03S
MACKINAC ISLAN SUNNY     76  60  58 CALM      30.03F
NEWBERRY       SUNNY     75  63  64 S10G17    30.01F
S. S. MARIE    MOSUNNY   81  63  54 SW9       30.02S
$$
MIZ004>006-011>014-085-052300-
CENTRAL UPPER MICHIGAN

CITY           SKY/WX    TMP DP  RH WIND       PRES   REMARKS
MANISTIQUE     SUNNY     66  59  76 SW7       30.01S
ESCANABA       SUNNY     73  63  68 S10G18    29.97F
MENOMINEE      SUNNY     81  61  50 S10G20    29.96F
SAWYER-GWINN   SUNNY     82  61  47 SW21G26   29.95F
$$
MIZ001>003-009>011-084-052300-
WESTERN UPPER MICHIGAN

CITY           SKY/WX    TMP DP  RH WIND       PRES   REMARKS
IRON MOUNTAIN  SUNNY     82  61  48 S14       29.94F
HOUGHTON       MOSUNNY   84  58  40 S12G21    29.87F
COPPER HARBOR    N/A     72  58  61 S5        29.86F
IRONWOOD       MOSUNNY   81  63  54 S12G18    29.85F
$$

ABBREVIATIONS USED IN REMARKS
   TC - TEMPERATURE IN CELSIUS
  WCI - WIND CHILL INDEX
   HX - HEAT INDEX
  VSB - VISIBILITY



USA.gov is the U.S. government's official web portal to all federal, state and local government web resources and services.